Time,TemperatureF,DewpointF,PressureIn,WindDirection,WindDirectionDegrees,WindSpeedMPH,WindSpeedGustMPH,Humidity,HourlyPrecipIn,Conditions,Clouds,dailyrainin,SoftwareType,DateUTC
2013-01-03 00:13:00,17.4,3.7,30.48,NNW,337,7.4,-999.0,54,-99.99,,,0.00,Acu-Link.com,2013-01-03 05:13:00,
2013-01-03 00:28:00,16.9,3.1,30.49,WNW,292,5.8,-999.0,54,-99.99,,,0.00,Acu-Link.com,2013-01-03 05:28:00,
2013-01-03 00:44:00,17.4,4.0,30.49,WNW,292,6.3,-999.0,55,-99.99,,,0.00,Acu-Link.com,2013-01-03 05:44:00,
2013-01-03 01:00:00,16.0,3.1,30.50,SSW,202,3.1,-999.0,56,-99.99,,,0.00,Acu-Link.com,2013-01-03 06:00:00,
2013-01-03 01:15:00,15.1,2.6,30.49,SE,135,2.7,-999.0,57,-99.99,,,0.00,Acu-Link.com,2013-01-03 06:15:00,
2013-01-03 01:30:00,14.5,2.5,30.50,ENE,67,1.6,-999.0,58,-99.99,,,0.00,Acu-Link.com,2013-01-03 06:30:00,
2013-01-03 01:46:00,13.6,3.1,30.51,ESE,112,2.7,-999.0,62,-99.99,,,0.00,Acu-Link.com,2013-01-03 06:46:00,
2013-01-03 02:01:00,12.9,2.7,30.50,WNW,292,0.0,-999.0,63,-99.99,,,0.00,Acu-Link.com,2013-01-03 07:01:00,
2013-01-03 02:16:00,12.4,2.9,30.51,SE,135,1.6,-999.0,65,-99.99,,,0.00,Acu-Link.com,2013-01-03 07:16:00,
2013-01-03 02:31:00,12.2,3.0,30.50,West,270,3.1,-999.0,66,-99.99,,,0.00,Acu-Link.com,2013-01-03 07:31:00,
2013-01-03 02:47:00,12.2,2.4,30.50,West,270,3.1,-999.0,64,-99.99,,,0.00,Acu-Link.com,2013-01-03 07:47:00,
2013-01-03 03:02:00,12.2,2.4,30.49,West,270,1.6,-999.0,64,-99.99,,,0.00,Acu-Link.com,2013-01-03 08:02:00,
2013-01-03 03:17:00,11.5,2.0,30.49,West,270,4.3,-999.0,65,-99.99,,,0.00,Acu-Link.com,2013-01-03 08:17:00,
2013-01-03 03:32:00,10.8,1.7,30.48,NW,315,2.2,-999.0,66,-99.99,,,0.00,Acu-Link.com,2013-01-03 08:32:00,
2013-01-03 03:47:00,10.0,1.3,30.48,WNW,292,2.7,-999.0,67,-99.99,,,0.00,Acu-Link.com,2013-01-03 08:47:00,
2013-01-03 04:03:00,9.9,0.5,30.48,WNW,292,3.1,-999.0,65,-99.99,,,0.00,Acu-Link.com,2013-01-03 09:03:00,
2013-01-03 04:18:00,9.5,0.1,30.48,ESE,112,1.1,-999.0,65,-99.99,,,0.00,Acu-Link.com,2013-01-03 09:18:00,
2013-01-03 04:33:00,9.1,0.1,30.48,NW,315,2.7,-999.0,66,-99.99,,,0.00,Acu-Link.com,2013-01-03 09:33:00,
2013-01-03 04:48:00,9.3,-0.4,30.48,NW,315,2.7,-999.0,64,-99.99,,,0.00,Acu-Link.com,2013-01-03 09:48:00,
2013-01-03 05:03:00,7.7,-1.3,30.48,WNW,292,0.0,-999.0,66,-99.99,,,0.00,Acu-Link.com,2013-01-03 10:03:00,
2013-01-03 05:19:00,5.9,-1.7,30.48,ESE,112,0.0,-999.0,70,-99.99,,,0.00,Acu-Link.com,2013-01-03 10:19:00,
2013-01-03 05:34:00,4.3,-2.1,30.49,NW,315,1.1,-999.0,74,-99.99,,,0.00,Acu-Link.com,2013-01-03 10:34:00,
2013-01-03 05:49:00,3.0,-1.5,30.48,NW,315,1.6,-999.0,81,-99.99,,,0.00,Acu-Link.com,2013-01-03 10:49:00,
2013-01-03 06:04:00,2.3,-1.7,30.49,West,270,0.0,-999.0,83,-99.99,,,0.00,Acu-Link.com,2013-01-03 11:04:00,
2013-01-03 06:19:00,0.9,-3.3,30.49,West,270,0.0,-999.0,82,-99.99,,,0.00,Acu-Link.com,2013-01-03 11:19:00,
2013-01-03 06:35:00,-0.2,-2.9,30.49,NW,315,1.1,-999.0,88,-99.99,,,0.00,Acu-Link.com,2013-01-03 11:35:00,
2013-01-03 06:50:00,0.0,-2.7,30.50,NW,315,1.6,-999.0,88,-99.99,,,0.00,Acu-Link.com,2013-01-03 11:50:00,
2013-01-03 07:05:00,-0.6,-3.5,30.50,WNW,292,0.0,-999.0,87,-99.99,,,0.00,Acu-Link.com,2013-01-03 12:05:00,
2013-01-03 07:20:00,-0.6,-3.3,30.50,NW,315,2.7,-999.0,88,-99.99,,,0.00,Acu-Link.com,2013-01-03 12:20:00,
2013-01-03 07:36:00,-0.9,-4.3,30.50,WNW,292,0.0,-999.0,85,-99.99,,,0.00,Acu-Link.com,2013-01-03 12:36:00,
2013-01-03 07:51:00,-0.9,-4.1,30.50,NW,315,0.0,-999.0,86,-99.99,,,0.00,Acu-Link.com,2013-01-03 12:51:00,
2013-01-03 08:06:00,-0.6,-3.7,30.50,NW,315,1.1,-999.0,86,-99.99,,,0.00,Acu-Link.com,2013-01-03 13:06:00,
2013-01-03 08:21:00,0.0,-3.5,30.50,NW,315,1.1,-999.0,85,-99.99,,,0.00,Acu-Link.com,2013-01-03 13:21:00,
2013-01-03 08:36:00,1.9,-2.0,30.49,ESE,112,0.0,-999.0,83,-99.99,,,0.00,Acu-Link.com,2013-01-03 13:36:00,
2013-01-03 08:52:00,3.6,-0.7,30.49,North,0,0.0,-999.0,82,-99.99,,,0.00,Acu-Link.com,2013-01-03 13:52:00,
2013-01-03 09:07:00,6.3,0.6,30.49,ENE,67,0.0,-999.0,77,-99.99,,,0.00,Acu-Link.com,2013-01-03 14:07:00,
2013-01-03 09:22:00,10.9,1.2,30.50,SSE,157,1.1,-999.0,64,-99.99,,,0.00,Acu-Link.com,2013-01-03 14:22:00,
2013-01-03 09:38:00,14.4,2.7,30.50,SSW,202,0.0,-999.0,59,-99.99,,,0.00,Acu-Link.com,2013-01-03 14:38:00,
2013-01-03 09:53:00,15.8,3.7,30.50,West,270,3.8,-999.0,58,-99.99,,,0.00,Acu-Link.com,2013-01-03 14:53:00,
2013-01-03 10:08:00,18.0,6.1,30.50,NW,315,3.1,-999.0,59,-99.99,,,0.00,Acu-Link.com,2013-01-03 15:08:00,
2013-01-03 10:23:00,20.5,8.8,30.50,West,270,4.7,-999.0,60,-99.99,,,0.00,Acu-Link.com,2013-01-03 15:23:00,
2013-01-03 10:38:00,21.4,9.7,30.48,WSW,247,7.8,-999.0,60,-99.99,,,0.00,Acu-Link.com,2013-01-03 15:38:00,
2013-01-03 10:54:00,23.2,12.1,30.48,NNW,337,2.7,-999.0,62,-99.99,,,0.00,Acu-Link.com,2013-01-03 15:54:00,
2013-01-03 11:09:00,24.3,13.9,30.47,SW,225,7.4,-999.0,64,-99.99,,,0.00,Acu-Link.com,2013-01-03 16:09:00,
2013-01-03 11:24:00,24.1,14.4,30.47,WNW,292,11.0,-999.0,66,-99.99,,,0.00,Acu-Link.com,2013-01-03 16:24:00,
2013-01-03 11:39:00,24.3,14.6,30.45,NW,315,5.8,-999.0,66,-99.99,,,0.00,Acu-Link.com,2013-01-03 16:39:00,
2013-01-03 11:54:00,24.8,14.4,30.45,NW,315,7.4,-999.0,64,-99.99,,,0.00,Acu-Link.com,2013-01-03 16:54:00,
2013-01-03 12:10:00,25.9,14.7,30.43,WNW,292,3.8,-999.0,62,-99.99,,,0.00,Acu-Link.com,2013-01-03 17:10:00,
2013-01-03 12:25:00,26.1,15.2,30.43,NW,315,7.8,-999.0,63,-99.99,,,0.00,Acu-Link.com,2013-01-03 17:25:00,
2013-01-03 12:40:00,25.5,15.1,30.42,West,270,4.7,-999.0,64,-99.99,,,0.00,Acu-Link.com,2013-01-03 17:40:00,
2013-01-03 12:55:00,25.9,15.4,30.41,WSW,247,11.0,-999.0,64,-99.99,,,0.00,Acu-Link.com,2013-01-03 17:55:00,
2013-01-03 13:10:00,25.7,15.2,30.41,WSW,247,5.8,-999.0,64,-99.99,,,0.00,Acu-Link.com,2013-01-03 18:10:00,
2013-01-03 13:26:00,27.3,15.7,30.41,WNW,292,5.8,-999.0,61,-99.99,,,0.00,Acu-Link.com,2013-01-03 18:26:00,
2013-01-03 13:41:00,27.1,15.9,30.40,NW,315,1.6,-999.0,62,-99.99,,,0.00,Acu-Link.com,2013-01-03 18:41:00,
2013-01-03 13:56:00,27.1,15.9,30.40,NNW,337,4.3,-999.0,62,-99.99,,,0.00,Acu-Link.com,2013-01-03 18:56:00,
2013-01-03 14:11:00,27.7,16.0,30.40,WSW,247,7.4,-999.0,61,-99.99,,,0.00,Acu-Link.com,2013-01-03 19:11:00,
2013-01-03 14:57:00,26.8,15.5,30.39,West,270,4.3,-999.0,62,-99.99,,,0.00,Acu-Link.com,2013-01-03 19:57:00,
2013-01-03 15:12:00,26.4,15.2,30.40,West,270,2.7,-999.0,62,-99.99,,,0.00,Acu-Link.com,2013-01-03 20:12:00,
2013-01-03 15:27:00,26.2,15.4,30.39,SW,225,2.7,-999.0,63,-99.99,,,0.00,Acu-Link.com,2013-01-03 20:27:00,
2013-01-03 15:43:00,26.6,15.4,30.39,West,270,2.7,-999.0,62,-99.99,,,0.00,Acu-Link.com,2013-01-03 20:43:00,
2013-01-03 15:58:00,25.7,15.2,30.40,West,270,5.8,-999.0,64,-99.99,,,0.00,Acu-Link.com,2013-01-03 20:58:00,
2013-01-03 16:13:00,24.8,14.7,30.40,West,270,3.8,-999.0,65,-99.99,,,0.00,Acu-Link.com,2013-01-03 21:13:00,
2013-01-03 16:28:00,23.2,14.2,30.40,West,270,3.1,-999.0,68,-99.99,,,0.00,Acu-Link.com,2013-01-03 21:28:00,
2013-01-03 16:43:00,21.9,13.7,30.40,WSW,247,0.0,-999.0,70,-99.99,,,0.00,Acu-Link.com,2013-01-03 21:43:00,
2013-01-03 16:59:00,21.0,13.4,30.40,SW,225,2.2,-999.0,72,-99.99,,,0.00,Acu-Link.com,2013-01-03 21:59:00,
2013-01-03 17:14:00,19.8,13.4,30.40,West,270,1.6,-999.0,76,-99.99,,,0.00,Acu-Link.com,2013-01-03 22:14:00,
2013-01-03 17:29:00,18.5,13.1,30.40,West,270,0.0,-999.0,79,-99.99,,,0.00,Acu-Link.com,2013-01-03 22:29:00,
2013-01-03 17:44:00,17.1,13.1,30.40,NNW,337,0.0,-999.0,84,-99.99,,,0.00,Acu-Link.com,2013-01-03 22:44:00,
2013-01-03 17:59:00,16.3,13.2,30.40,NW,315,0.0,-999.0,87,-99.99,,,0.00,Acu-Link.com,2013-01-03 22:59:00,
2013-01-03 18:15:00,15.6,12.7,30.40,NW,315,0.0,-999.0,88,-99.99,,,0.00,Acu-Link.com,2013-01-03 23:15:00,
2013-01-03 18:30:00,15.6,13.0,30.40,WNW,292,1.6,-999.0,89,-99.99,,,0.00,Acu-Link.com,2013-01-03 23:30:00,
2013-01-03 18:45:00,15.3,12.4,30.41,ENE,67,0.0,-999.0,88,-99.99,,,0.00,Acu-Link.com,2013-01-03 23:45:00,
2013-01-03 19:00:00,14.7,12.6,30.40,NNW,337,1.1,-999.0,91,-99.99,,,0.00,Acu-Link.com,2013-01-04 00:00:00,
2013-01-03 19:15:00,15.3,12.6,30.40,NE,45,1.1,-999.0,89,-99.99,,,0.00,Acu-Link.com,2013-01-04 00:15:00,
2013-01-03 19:31:00,15.6,12.7,30.40,NNW,337,2.2,-999.0,88,-99.99,,,0.00,Acu-Link.com,2013-01-04 00:31:00,
2013-01-03 19:46:00,16.0,12.5,30.40,NW,315,1.6,-999.0,86,-99.99,,,0.00,Acu-Link.com,2013-01-04 00:46:00,
2013-01-03 20:01:00,16.3,13.7,30.39,WNW,292,2.2,-999.0,89,-99.99,,,0.00,Acu-Link.com,2013-01-04 01:01:00,
2013-01-03 20:16:00,17.2,14.0,30.40,West,270,0.0,-999.0,87,-99.99,,,0.00,Acu-Link.com,2013-01-04 01:16:00,
2013-01-03 20:32:00,18.0,14.0,30.40,South,180,1.6,-999.0,84,-99.99,,,0.00,Acu-Link.com,2013-01-04 01:32:00,
2013-01-03 20:47:00,18.7,13.8,30.41,West,270,1.1,-999.0,81,-99.99,,,0.00,Acu-Link.com,2013-01-04 01:47:00,
2013-01-03 21:02:00,18.7,14.9,30.39,West,270,0.0,-999.0,85,-99.99,,,0.00,Acu-Link.com,2013-01-04 02:02:00,
2013-01-03 21:17:00,18.0,14.5,30.39,SE,135,0.0,-999.0,86,-99.99,,,0.00,Acu-Link.com,2013-01-04 02:17:00,
2013-01-03 21:32:00,17.4,14.7,30.39,West,270,1.6,-999.0,89,-99.99,,,0.00,Acu-Link.com,2013-01-04 02:32:00,
2013-01-03 21:48:00,17.4,14.2,30.39,West,270,0.0,-999.0,87,-99.99,,,0.00,Acu-Link.com,2013-01-04 02:48:00,
2013-01-03 22:03:00,17.4,14.7,30.39,West,270,1.6,-999.0,89,-99.99,,,0.00,Acu-Link.com,2013-01-04 03:03:00,
2013-01-03 22:18:00,17.8,14.3,30.39,NW,315,2.2,-999.0,86,-99.99,,,0.00,Acu-Link.com,2013-01-04 03:18:00,
2013-01-03 22:33:00,18.3,14.6,30.39,NW,315,1.1,-999.0,85,-99.99,,,0.00,Acu-Link.com,2013-01-04 03:33:00,
2013-01-03 22:48:00,19.0,15.0,30.39,West,270,2.2,-999.0,84,-99.99,,,0.00,Acu-Link.com,2013-01-04 03:48:00,
2013-01-03 23:04:00,19.4,15.4,30.38,West,270,0.0,-999.0,84,-99.99,,,0.00,Acu-Link.com,2013-01-04 04:04:00,
2013-01-03 23:19:00,19.9,15.6,30.38,SW,225,0.0,-999.0,83,-99.99,,,0.00,Acu-Link.com,2013-01-04 04:19:00,
2013-01-03 23:34:00,19.6,15.5,30.38,NW,315,2.7,-999.0,84,-99.99,,,0.00,Acu-Link.com,2013-01-04 04:34:00,
2013-01-03 23:49:00,18.7,15.5,30.37,NNE,22,1.1,-999.0,87,-99.99,,,0.00,Acu-Link.com,2013-01-04 04:49:00,